Air Resources Laboratory banner image
Air Resources Laboratory web site National Oceanic and Atmospheric Administration (NOAA)

ga roundup


Office: FFC

ASUS42 KFFC 140403
RWRGA
WEATHER ROUNDUP FOR GEORGIA
NATIONAL WEATHER SERVICE PEACHTREE CITY GA
1100 PM EST WED DEC 13 2017

NOTE: "FAIR" INDICATES FEW OR NO CLOUDS BELOW 12,000 FEET WITH NO
SIGNIFICANT WEATHER AND/OR OBSTRUCTIONS TO VISIBILITY.

* = USE WITH CAUTION. THE STATIONS MARKED WITH AN ASTERISK MAY NOT
REPORT WEATHER SUCH AS PRECIPITATION, FOG, OR THUNDER AND ARE NOT
QUALITY CONTROLLED BY NWS.

THE REMARK "TC" DENOTES TEMPERATURE READING IN DEGREES CELSIUS.

GAZ001>058-140500-
NORTH GEORGIA

CITY           SKY/WX    TMP DP  RH WIND       PRES   REMARKS
ATLANTA        PTCLDY    44  21  40 W13       29.86S
ATHENS         CLEAR     34  19  54 SW5       29.84F WCI  30
CHAMBLEE       CLEAR     40  20  44 SW9       29.85S WCI  34
PEACHTREE CITY CLEAR     44  21  40 VRB5      29.88S
ROME           CLEAR     34  24  67 SW5       29.86R WCI  30
WEST ATLANTA   CLEAR     38  22  52 CALM      29.86F
GAINESVILLE    CLEAR     39  19  44 W8        29.84S WCI  33
CARTERSVILLE   CLEAR     29  25  85 CALM      29.88R


CITY           SKY/WX    TMP DP  RH WIND       PRES   REMARKS
DALTON*        CLEAR     36  23  60 SE3       29.88R
LAWRENCEVILLE* CLEAR     40  19  43 W6        29.84S
MARIETTA       CLEAR     40  19  43 W6        29.85S
KENNESAW*      CLEAR     38  21  50 SW6       29.86S WCI  33
CANTON*        CLEAR     37  21  52 CALM      29.86S
$$

GAZ059>098-102>109-140500-
CENTRAL GEORGIA

CITY           SKY/WX    TMP DP  RH WIND       PRES   REMARKS
AUGUSTA-BUSH   CLEAR     38  21  50 SW3       29.87S
AUGUSTA-DANIEL CLEAR     44  19  36 SW6       29.87R
COLUMBUS       CLEAR     45  25  45 W8        29.93R
MACON          CLEAR     43  22  43 SW7       29.90S
ROBINS AFB     CLEAR     46  22  39 SW8       29.90S


CITY           SKY/WX    TMP DP  RH WIND       PRES   REMARKS
LAGRANGE*      CLEAR     34  26  72 S3        29.91S
SYLVANIA*      CLEAR     43  27  54 SW5       29.92S
MILLEDGEVILLE* CLEAR     36  28  75 CALM      29.89S
$$

GAZ099>101-110>166-140500-
SOUTH GEORGIA

CITY           SKY/WX    TMP DP  RH WIND       PRES   REMARKS
SAVANNAH       CLEAR     43  26  51 SW7       29.95S
VALDOSTA       CLOUDY    43  34  70 SW3       29.99F
ALMA           CLEAR     44  29  55 SW9       29.96R
ST SIMONS      CLEAR     48  34  58 SW13      29.97F
FT STEWART     CLEAR     37  29  73 CALM      29.93S
ALBANY         CLOUDY    44  30  57 SW6       29.99S
HUNTER AFB     CLEAR     43  27  53 SW7       29.93F
MOODY AFB      CLOUDY    45  34  64 SW9       29.97S
BRUNSWICK      CLEAR     43  30  61 SW9       29.98S


CITY           SKY/WX    TMP DP  RH WIND       PRES   REMARKS
BAINBRIDGE*    CLOUDY    45  41  87 SW3       29.98F
MOULTRIE*      CLOUDY    43  32  65 W3        29.99S
VIDALIA*       CLEAR     41  28  60 SW6       29.94S
WAYCROSS*      CLEAR     44  30  59 W8        29.97S
DOUGLAS*       CLOUDY    41  30  65 SW7       29.98S
$$




Office: CHS ASUS42 KCHS 140311 RWRCHS REGIONAL WEATHER ROUNDUP NATIONAL WEATHER SERVICE CHARLESTON SC 1000 PM EST WED DEC 13 2017 NOTE: "FAIR" INDICATES FEW OR NO CLOUDS BELOW 12,000 FEET WITH NO SIGNIFICANT WEATHER AND/OR OBSTRUCTIONS TO VISIBILITY. NOT ALL STATIONS ARE QUALITY CONTROLLED. USE DATA WITH CAUTION... ESPECIALLY DEWPOINT OBSERVATIONS. SCZ027-030-031-034>040-042>050-140400- ...SOUTHEAST SOUTH CAROLINA... CITY SKY/WX TMP DP RH WIND PRES REMARKS N CHARLESTON CLEAR 37 32 82 SW8 29.91F WCI 31 WATERFRONT PRK N/A 47 36 65 SW6 29.77F JOHNS ISLAND FAIR 46 32 57 SW6 29.92F PINOPOLIS N/A 41 30 65 VRB3 29.82F MONCKS CORNER FAIR 39 28 65 S7 29.89F WCI 34 SUMMERVILLE FAIR 37 32 81 SW5 29.92S WCI 34 BEAUFORT MCAS CLEAR 45 32 60 S7 29.92F BEAUFORT ARPT FAIR 45 32 61 SW6 29.92F HILTON HEAD IS CLEAR 46 28 49 SW8 29.95S WALTERBORO CLEAR 39 27 60 SW6 29.93R WCI 35 ALLENDALE FAIR 41 25 52 CALM 29.90S ...SOUTHERN MIDLANDS AND PEE DEE... CITY SKY/WX TMP DP RH WIND PRES REMARKS GEORGETOWN FAIR 36 28 75 S5 29.90F WCI 32 KINGSTREE FAIR 36 27 69 CALM 29.87F ORANGEBURG CLEAR 40 24 53 SW10 29.89S WCI 33 BARNWELL N/A 41 25 52 CALM 29.90S AIKEN FAIR 39 21 48 SW10 29.88F WCI 32 MANNING FAIR 43 -9 11 MISG 29.88S COLUMBIA CLEAR 43 21 41 SW7 29.84F SUMTER CLEAR 41 21 44 SW12 29.83F FLORENCE CLEAR 38 24 57 S7 29.85F WCI 33 MYRTLE BEACH CLEAR 43 26 51 SW10 29.89 N MYRTLE BEACH CLEAR 45 26 47 SW14 29.88F $$ GAZ063-065-086>088-099>101-113>116-118-119-134>141-150-140400- ...SOUTHEAST GEORGIA... CITY SKY/WX TMP DP RH WIND PRES REMARKS SAVANNAH ARPT CLEAR 42 27 55 SW8 29.95F HUNTER AAF CLEAR 43 28 54 SW6 29.94F FORT STEWART CLEAR 38 30 75 CALM 29.93F STATESBORO CLEAR 44 21 39 SW7 29.92F SYLVANIA CLEAR 42 28 59 CALM 29.92S CLAXTON FAIR 38 30 72 S3 29.93F ...CSRA...CENTRAL AND FAR SOUTHEAST GEORGIA... CITY SKY/WX TMP DP RH WIND PRES REMARKS THOMSON CLEAR 40 19 43 W5 29.91F WCI 36 AUGUSTA-BUSH CLEAR 35 23 61 S9 29.87F WCI 28 AUGUSTA-DANIEL CLEAR 45 19 35 SW12 29.86F SWAINSBORO FAIR 43 23 45 CALM 29.93S VIDALIA CLEAR 41 28 60 SW5 29.94F EASTMAN FAIR 41 14 32 SW5 29.97S HAZLEHURST FAIR 44 13 29 SW5 29.94S ALMA CLEAR 40 28 62 SW6 29.95F WCI 36 WAYCROSS CLEAR 41 26 56 SW8 29.98F JESUP NOT AVBL BAXLEY FAIR 37 27 65 SW3 29.94F BRUNSWICK CLEAR 43 32 65 SW7 29.99S SAINT SIMONS CLEAR 48 36 63 SW9 29.98F $$ SCZ027-028-034-036>038-045-046-048>050-GAZ119-141-140400- ...LAKE AND SUPPLEMENTAL COASTAL OBSERVATIONS... STATION/POSITION TIME TEMP WIND PRES WAVE SWELL AIR SEA DIR/SP/G HT/PER HT/PER/DIR (UTC) (F) (DEG/KT/KT) (MB) (FT/S) (FT/S/D) WINYAH BAY 0145 43 230/ 6 1013.0 LAKE MURRAY 0220 47 230/ 15/ 21 1009.8 ACE BASIN NERRS 0145 44 CALM 1014.0 FORT PULASKI 0242 45 54 230/ 4/ 5 1014.2F SAPELO ISLAND 0200 43 210/ 6 1015.0 $$ ANZ835-935-AMZ111-154-330-350-352-354-370-450-454-472-140400- ...C-MAN AND BUOY OBSERVATIONS... STATION/POSITION TIME TEMP WIND PRES WAVE SWELL AIR SEA DIR/SP/G HT/PER HT/PER/DIR (UTC) (F) (DEG/KT/KT) (MB) (FT/S) (FT/S/D) BUOY 41004 0250 73 230/ 21/ 27 1012.7F 3/ 4 2/ 90/ 8 BUOY 41008 0250 55 59 220/ 19/ 23 1014.5F 3/ 4 FOLLY BEACH CMAN 0200 49 230/ 14/ 19 1014.0F CAPERS NEARSHORE 0208 48 56 240/ 19/ 25 1012.8F FRIPP NEARSHORE 0208 50 56 220/ 16/ 25 1012.9S STATION/POSITION TIME TEMP WIND PRES WAVE SWELL AIR SEA DIR/SP/G HT/PER HT/PER/DIR (UTC) (F) (DEG/KT/KT) (MB) (FT/S) (FT/S/D) 5E ST. MARYS GA 0230 62 N/A 1/ 3 FRYING PAN BUOY 0250 55 63 220/ 21/ 25 1011.8F 3/ 4 2/ 90/ 9 BUOY 41025 0250 51 74 210/ 14/ 17 1010.2F 4/ 8 3/180/ 8 CAPE LOOKOUT NC 0200 210/ 12/ 15 1011.5F BUOY 41002 0150 60 74 250/ 12/ 17 1014.3 9/ 9 8/340/ 9 BUOY 41010 NOT AVBL ST AUGUSTINE FL 0300 48 62 240/ 7/ 9 1017.4R $$ ASUS42 KCHS 140326 RWRCHS REGIONAL WEATHER ROUNDUP NATIONAL WEATHER SERVICE CHARLESTON SC 1000 PM EST WED DEC 13 2017 NOTE: "FAIR" INDICATES FEW OR NO CLOUDS BELOW 12,000 FEET WITH NO SIGNIFICANT WEATHER AND/OR OBSTRUCTIONS TO VISIBILITY. NOT ALL STATIONS ARE QUALITY CONTROLLED. USE DATA WITH CAUTION... ESPECIALLY DEWPOINT OBSERVATIONS. SCZ027-030-031-034>040-042>050-140400- ...SOUTHEAST SOUTH CAROLINA... CITY SKY/WX TMP DP RH WIND PRES REMARKS N CHARLESTON CLEAR 37 32 82 SW8 29.91F WCI 31 WATERFRONT PRK N/A 47 36 65 SW6 29.77F JOHNS ISLAND FAIR 46 30 53 SW9 29.92S PINOPOLIS N/A 41 30 65 VRB3 29.82F MONCKS CORNER FAIR 37 27 65 SW6 29.90S WCI 33 SUMMERVILLE FAIR 37 32 81 SW5 29.92S WCI 34 BEAUFORT MCAS CLEAR 45 32 60 S7 29.92F BEAUFORT ARPT FAIR 45 32 61 SW7 29.93S HILTON HEAD IS CLEAR 46 28 49 SW9 29.94F WALTERBORO CLEAR 39 27 60 SW6 29.92F WCI 35 ALLENDALE FAIR 41 25 52 CALM 29.89F ...SOUTHERN MIDLANDS AND PEE DEE... CITY SKY/WX TMP DP RH WIND PRES REMARKS GEORGETOWN FAIR 36 30 80 SW5 29.90F WCI 32 KINGSTREE FAIR 36 27 69 CALM 29.87S ORANGEBURG CLEAR 40 24 53 SW10 29.89S WCI 33 BARNWELL N/A 41 25 52 CALM 29.88F AIKEN FAIR 39 21 48 SW12 29.88S WCI 32 MANNING FAIR 43 1 17 MISG 29.88F COLUMBIA CLEAR 43 21 41 SW7 29.84F SUMTER CLEAR 41 21 44 SW12 29.83F FLORENCE CLEAR 38 24 57 S7 29.85F WCI 33 MYRTLE BEACH CLEAR 43 26 51 SW10 29.89 N MYRTLE BEACH CLEAR 45 26 47 SW14 29.88F $$ GAZ063-065-086>088-099>101-113>116-118-119-134>141-150-140400- ...SOUTHEAST GEORGIA... CITY SKY/WX TMP DP RH WIND PRES REMARKS SAVANNAH ARPT CLEAR 42 27 55 SW8 29.95F HUNTER AAF CLEAR 43 28 54 SW6 29.94F FORT STEWART CLEAR 38 30 75 CALM 29.93F STATESBORO CLEAR 44 20 39 SW6 29.93R SYLVANIA CLEAR 41 28 60 SW3 29.92S CLAXTON FAIR 41 30 66 CALM 29.93F ...CSRA...CENTRAL AND FAR SOUTHEAST GEORGIA... CITY SKY/WX TMP DP RH WIND PRES REMARKS THOMSON CLEAR 40 19 42 W5 29.91S WCI 37 AUGUSTA-BUSH CLEAR 35 23 61 S9 29.87F WCI 28 AUGUSTA-DANIEL CLEAR 45 19 35 SW12 29.86F SWAINSBORO FAIR 43 25 49 NW3 29.93S VIDALIA CLEAR 41 28 60 SW5 29.94S EASTMAN FAIR 41 17 37 S5 29.96F HAZLEHURST FAIR 43 13 29 SW5 29.94S ALMA CLEAR 40 28 62 SW6 29.95F WCI 36 WAYCROSS CLEAR 43 27 54 SW9 29.97F JESUP FAIR 39 28 65 CALM 29.96 BAXLEY FAIR 39 27 60 SW3 29.95S BRUNSWICK CLEAR 41 32 70 SW7 29.98F SAINT SIMONS CLEAR 48 36 63 SW9 29.98F $$ SCZ027-028-034-036>038-045-046-048>050-GAZ119-141-140400- ...LAKE AND SUPPLEMENTAL COASTAL OBSERVATIONS... STATION/POSITION TIME TEMP WIND PRES WAVE SWELL AIR SEA DIR/SP/G HT/PER HT/PER/DIR (UTC) (F) (DEG/KT/KT) (MB) (FT/S) (FT/S/D) WINYAH BAY 0230 44 240/ 8 1013.0S LAKE MURRAY 0250 46 220/ 15/ 18 1009.5F ACE BASIN NERRS 0245 42 CALM 1013.0F FORT PULASKI 0300 44 54 230/ 4/ 5 1014.1 SAPELO ISLAND 0300 44 220/ 7 1015.0 $$ ANZ835-935-AMZ111-154-330-350-352-354-370-450-454-472-140400- ...C-MAN AND BUOY OBSERVATIONS... STATION/POSITION TIME TEMP WIND PRES WAVE SWELL AIR SEA DIR/SP/G HT/PER HT/PER/DIR (UTC) (F) (DEG/KT/KT) (MB) (FT/S) (FT/S/D) BUOY 41004 0310 73 240/ 19/ 25 1012.5 BUOY 41008 0250 55 59 220/ 19/ 23 1014.5F 3/ 4 FOLLY BEACH CMAN 0300 50 240/ 9/ 13 1013.5F CAPERS NEARSHORE 0308 49 56 250/ 21/ 29 1012.0F FRIPP NEARSHORE 0308 50 55 210/ 16/ 33 1012.6F STATION/POSITION TIME TEMP WIND PRES WAVE SWELL AIR SEA DIR/SP/G HT/PER HT/PER/DIR (UTC) (F) (DEG/KT/KT) (MB) (FT/S) (FT/S/D) 5E ST. MARYS GA 0300 62 N/A 2/ 3 FRYING PAN BUOY 0310 56 63 230/ 21/ 27 1011.5 BUOY 41025 0310 52 74 220/ 16/ 23 1010.7 CAPE LOOKOUT NC 0300 240/ 16/ 22 1011.5S BUOY 41002 0250 61 74 240/ 16/ 19 1013.9F 9/ 8 7/320/ 8 BUOY 41010 NOT AVBL ST AUGUSTINE FL 0300 48 62 240/ 7/ 9 1017.4R $$